Track STARLINK-5199 now! 10-day predictions STARLINK-5199 is classified as:
1 54201U 22141AW 24325.38287409 -.00000359 00000-0 -44771-5 0 9996 2 54201 53.2163 323.3588 0001351 91.2463 268.8683 15.08839615114396